Tracking 30074 objects as of 13-Jan-2025
HD Live streaming from Space Station
objects crossing your sky now

RANGE-A

Track RANGE-A now!
10-day predictions
RANGE-A is classified as:


NORAD ID: 43772
Int'l Code: 2018-099Q
Perigee: 506.3 km
Apogee: 510.9 km
Inclination: 97.5 °
Period: 94.6 minutes
Semi major axis: 6879 km
RCS: Unknown
Launch date: December 3, 2018
Source: (TBD)
Launch site: AIR FORCE WESTERN TEST RANGE (AFWTR)

Uplink (MHz):
Downlink (MHz): 437.150
Beacon (MHz):
Mode: 0.1kbps-115.2kbps FSK/MSK/GFSK/GMSK
Call sign:
Status: Inactive

Your satellite tracking list
Your tracking list is empty




NASA's NSSDC Master Catalog

Two Line Element Set (TLE):
1 43772U 18099Q   25012.69672158  .00019442  00000-0  86646-3 0  9997
2 43772  97.4968  77.5030 0003329 257.2979 102.7885 15.21463203334444
Source of the keplerian elements: Caltech